DT_LEITURA;HR_LEITURA;MED-PressaoAtm[hPa];VAL-TempExt[oC];VAL-UmidExt[%UR];VAL-TempInt[oC];VAL-UmidInt[%UR];Dir-Vento[grau];Vel-Vento[m/s];Precipitação[mm/h]
23/08/2026;00:04:00;1021,7;;;10,6;76;171;1,1;0,0
23/08/2026;00:09:00;1021,7;;;10,6;76;194;1,1;0,0
23/08/2026;00:14:00;1021,7;;;10,6;77;132;0,9;0,0
23/08/2026;00:19:00;1021,6;;;10,6;76;156;1,5;0,0
23/08/2026;00:24:00;1021,5;;;10,6;76;161;1,3;0,0
23/08/2026;00:29:00;1021,5;;;10,6;76;147;1,4;0,0
23/08/2026;00:34:00;1021,5;;;10,6;76;151;1,5;0,0
23/08/2026;00:39:00;1021,5;;;10,6;76;141;1,2;0,0
23/08/2026;00:44:00;1021,4;;;10,5;76;139;1,0;0,0
23/08/2026;00:49:00;1021,4;;;10,5;76;130;1,1;0,0
23/08/2026;00:54:00;1021,3;;;10,4;76;147;1,1;0,0
23/08/2026;00:59:00;1021,4;;;10,4;76;192;0,8;0,0
23/08/2026;01:04:00;1021,4;;;10,4;76;169;1,3;0,0
23/08/2026;01:09:00;1021,4;;;10,4;76;235;1,0;0,0
23/08/2026;01:14:00;1021,4;;;10,4;76;165;1,0;0,0
23/08/2026;01:19:00;1021,4;;;10,4;76;169;1,1;0,0
23/08/2026;01:24:00;1021,4;;;10,3;76;148;1,1;0,0
23/08/2026;01:29:00;1021,4;;;10,3;76;145;1,2;0,0
23/08/2026;01:34:00;1021,3;;;10,2;76;148;1,2;0,0
23/08/2026;01:39:00;1021,2;;;10,2;76;154;1,2;0,0
23/08/2026;01:44:00;1021,2;;;10,2;76;159;1,1;0,0
23/08/2026;01:49:00;1021,2;;;10,1;76;164;1,1;0,0
23/08/2026;01:54:00;1021,1;;;10,1;76;158;1,0;0,0
23/08/2026;01:59:00;1021,1;;;10,1;76;150;1,2;0,0
23/08/2026;02:04:00;1021,1;;;10,1;76;156;1,3;0,0
23/08/2026;02:09:00;1021,1;;;10,1;76;154;1,3;0,0
23/08/2026;02:14:00;1021,1;;;10,0;76;161;1,2;0,0
23/08/2026;02:19:00;1021,1;;;10,0;76;155;1,2;0,0
23/08/2026;02:24:00;1021,1;;;10,0;76;149;1,3;0,0
23/08/2026;02:29:00;1021,1;;;10,0;76;157;1,3;0,0
23/08/2026;02:34:00;1021,1;;;9,9;76;153;1,3;0,0
23/08/2026;02:39:00;1021,0;;;9,9;76;165;1,3;0,0
23/08/2026;02:44:00;1021,1;;;9,9;76;164;1,0;0,0
23/08/2026;02:49:00;1021,1;;;9,9;76;152;0,8;0,0
23/08/2026;02:54:00;1021,0;;;9,9;76;151;0,9;0,0
23/08/2026;02:59:00;1021,0;;;9,9;76;143;1,1;0,0
23/08/2026;03:04:00;1020,9;;;9,9;76;145;1,1;0,0
23/08/2026;03:09:00;1020,9;;;9,9;76;155;1,0;0,0
23/08/2026;03:14:00;1020,9;;;9,9;76;142;0,9;0,0
23/08/2026;03:19:00;1020,9;;;9,8;76;148;1,0;0,0
23/08/2026;03:24:00;1020,9;;;9,8;76;148;1,0;0,0
23/08/2026;03:29:00;1020,9;;;9,8;76;160;1,1;0,0
23/08/2026;03:34:00;1021,0;;;9,8;76;224;1,2;0,0
23/08/2026;03:39:00;1020,9;;;9,8;76;209;0,6;0,0
23/08/2026;03:44:00;1020,9;;;9,8;76;164;0,6;0,0
23/08/2026;03:49:00;1020,9;;;9,8;76;151;0,9;0,0
23/08/2026;03:54:00;1020,8;;;9,8;76;168;1,0;0,0
23/08/2026;03:59:00;1020,7;;;9,7;76;145;1,2;0,0
23/08/2026;04:04:00;1020,7;;;9,7;76;160;1,2;0,0
23/08/2026;04:09:00;1020,6;;;9,6;76;165;1,3;0,0
23/08/2026;04:14:00;1020,6;;;9,6;76;154;1,1;0,0
23/08/2026;04:19:00;1020,5;;;9,6;76;157;1,2;0,0
23/08/2026;04:24:00;1020,5;;;9,6;76;155;1,3;0,0
23/08/2026;04:29:00;1020,5;;;9,6;76;167;1,4;0,0
23/08/2026;04:34:00;1020,5;;;9,6;76;161;1,2;0,0
23/08/2026;04:39:00;1020,5;;;9,5;76;170;1,0;0,0
23/08/2026;04:44:00;1020,6;;;9,5;76;178;1,1;0,0
23/08/2026;04:49:00;1020,6;;;9,5;76;163;1,0;0,0
23/08/2026;04:54:00;1020,6;;;9,5;76;174;1,2;0,0
23/08/2026;04:59:00;1020,7;;;9,5;76;179;1,3;0,0
23/08/2026;05:04:00;1020,7;;;9,5;76;169;1,2;0,0
23/08/2026;05:09:00;1020,8;;;9,6;76;172;1,0;0,0
23/08/2026;05:14:00;1020,9;;;9,6;76;166;1,2;0,0
23/08/2026;05:19:00;1020,9;;;9,6;76;168;1,3;0,0
23/08/2026;05:24:00;1021,0;;;9,6;76;169;1,4;0,0
23/08/2026;05:29:00;1021,1;;;9,6;76;161;1,2;0,0
23/08/2026;05:34:00;1021,2;;;9,6;76;161;1,1;0,0
23/08/2026;05:39:00;1021,2;;;9,7;76;157;1,0;0,0
23/08/2026;05:44:00;1021,3;;;9,7;76;151;1,0;0,0
23/08/2026;05:49:00;1021,4;;;9,7;76;163;1,2;0,0
23/08/2026;05:54:00;1021,5;;;9,7;76;186;1,2;0,0
23/08/2026;05:59:00;1021,5;;;9,7;76;180;1,2;0,0
23/08/2026;06:04:00;1021,7;;;9,7;76;183;1,1;0,0
23/08/2026;06:09:00;1021,7;;;9,8;76;162;1,1;0,0
23/08/2026;06:14:00;1021,8;;;9,8;76;167;1,4;0,0
23/08/2026;06:19:00;1021,9;;;9,8;76;171;1,5;0,0
23/08/2026;06:24:00;1022,1;;;9,9;76;188;1,3;0,0
23/08/2026;06:29:00;1022,2;;;9,9;76;184;1,2;0,0
23/08/2026;06:34:00;1022,3;;;9,9;76;185;1,2;0,0
23/08/2026;06:39:00;1022,3;;;9,9;76;189;1,3;0,0
23/08/2026;06:44:00;1022,4;;;10,0;76;195;1,2;0,0
23/08/2026;06:49:00;1022,6;;;10,0;76;200;1,4;0,0
23/08/2026;06:54:00;1022,7;;;10,1;76;196;1,1;0,0
23/08/2026;06:59:00;1022,7;;;10,1;76;198;1,3;0,0
23/08/2026;07:04:00;1022,7;;;10,1;76;190;1,2;0,0
23/08/2026;07:09:00;1022,8;;;10,2;76;188;1,2;0,0
23/08/2026;07:14:00;1022,8;;;10,3;76;176;1,1;0,0
23/08/2026;07:19:00;1022,7;;;10,3;76;161;1,2;0,0
23/08/2026;07:24:00;1022,8;;;10,4;76;165;1,0;0,0
23/08/2026;07:29:00;1022,8;;;10,4;76;164;1,0;0,0
23/08/2026;07:34:00;1022,8;;;10,4;76;157;1,1;0,0
23/08/2026;07:39:00;1022,8;;;10,4;76;155;1,2;0,0
23/08/2026;07:44:00;1022,8;;;10,5;76;168;1,3;0,0
23/08/2026;07:49:00;1022,9;;;10,5;76;177;1,3;0,0
23/08/2026;07:54:00;1022,8;;;10,5;76;173;1,3;0,0
23/08/2026;07:59:00;1022,8;;;10,6;76;175;1,1;0,0
23/08/2026;08:04:00;1022,8;;;10,6;77;174;1,1;0,0
23/08/2026;08:09:00;1022,9;;;10,8;79;197;1,2;0,0
23/08/2026;08:14:00;1022,9;;;10,9;80;183;1,0;0,0
23/08/2026;08:19:00;1022,9;;;11,2;80;193;1,0;0,0
23/08/2026;08:24:00;1023,0;;;11,5;81;216;1,5;0,0
23/08/2026;08:29:00;1023,0;;;11,8;81;225;2,1;0,0
23/08/2026;08:34:00;1022,9;;;12,2;81;233;2,3;0,0
23/08/2026;08:39:00;1023,0;;;12,6;80;247;2,9;0,0
23/08/2026;08:44:00;1023,0;;;12,9;80;247;2,9;0,0
23/08/2026;08:49:00;1023,1;;;13,3;79;251;3,0;0,0
23/08/2026;08:54:00;1023,2;;;13,6;78;229;2,3;0,0
23/08/2026;08:59:00;1023,3;;;13,9;78;248;2,1;0,0
23/08/2026;09:04:00;1023,3;;;14,1;78;226;2,3;0,0
23/08/2026;09:09:00;1023,3;;;14,3;77;240;3,2;0,0
23/08/2026;09:14:00;1023,3;;;14,5;77;236;3,4;0,0
23/08/2026;09:19:00;1023,4;;;14,7;76;241;3,4;0,0
23/08/2026;09:24:00;1023,4;;;14,9;76;235;3,8;0,0
23/08/2026;09:29:00;1023,5;;;15,0;76;234;4,3;0,0
23/08/2026;09:34:00;1023,5;;;15,1;75;231;4,8;0,0
23/08/2026;09:39:00;1023,5;;;15,2;75;234;4,7;0,0
23/08/2026;09:44:00;1023,5;;;15,3;75;231;4,6;0,0
23/08/2026;09:49:00;1023,6;;;15,3;75;228;4,2;0,0
23/08/2026;09:54:00;1023,6;;;15,4;75;225;4,0;0,0
23/08/2026;09:59:00;1023,6;;;15,4;75;234;4,1;0,0
23/08/2026;10:04:00;1023,7;;;15,5;75;232;4,5;0,0
23/08/2026;10:09:00;1023,7;;;15,5;75;239;4,6;0,0
23/08/2026;10:14:00;1023,8;;;15,6;75;242;4,6;0,0
23/08/2026;10:19:00;1023,8;;;15,7;75;232;4,8;0,0
23/08/2026;10:24:00;1023,9;;;15,7;75;234;4,6;0,0
23/08/2026;10:29:00;1023,8;;;15,8;75;236;4,4;0,0
23/08/2026;10:34:00;1023,8;;;15,8;75;235;4,8;0,0
23/08/2026;10:39:00;1023,8;;;15,8;75;234;5,1;0,0
23/08/2026;10:44:00;1023,8;;;15,9;75;240;4,3;0,0
23/08/2026;10:49:00;1023,7;;;16,0;75;235;4,5;0,0
23/08/2026;10:54:00;1023,7;;;16,0;75;239;4,2;0,0
23/08/2026;10:59:00;1023,6;;;16,1;75;242;4,0;0,0
23/08/2026;11:04:00;1023,5;;;16,1;75;238;4,5;0,0
23/08/2026;11:09:00;1023,5;;;16,2;75;244;4,0;0,0
23/08/2026;11:14:00;1023,4;;;16,3;75;242;4,6;0,0
23/08/2026;11:19:00;1023,4;;;16,4;75;246;4,4;0,0
23/08/2026;11:24:00;1023,4;;;16,5;75;240;4,3;0,0
23/08/2026;11:29:00;1023,4;;;16,5;75;240;4,2;0,0
23/08/2026;11:34:00;1023,3;;;16,6;75;247;3,7;0,0
23/08/2026;11:39:00;1023,1;;;16,7;75;246;4,3;0,0
23/08/2026;11:44:00;1023,0;;;16,8;75;242;4,2;0,0
23/08/2026;11:49:00;1023,0;;;16,9;75;243;4,4;0,0
23/08/2026;11:54:00;1023,0;;;16,9;75;248;4,2;0,0
23/08/2026;11:59:00;1022,8;;;17,0;75;249;4,5;0,0
23/08/2026;12:04:00;1022,8;;;17,1;75;248;3,5;0,0
23/08/2026;12:09:00;1022,7;;;17,2;75;251;3,6;0,0
23/08/2026;12:14:00;1022,7;;;17,3;75;254;3,3;0,0
23/08/2026;12:19:00;1022,6;;;17,4;75;248;4,0;0,0
23/08/2026;12:24:00;1022,5;;;17,5;75;246;4,4;0,0
23/08/2026;12:29:00;1022,4;;;17,6;75;253;3,8;0,0
23/08/2026;12:34:00;1022,3;;;17,7;75;243;3,6;0,0
23/08/2026;12:39:00;1022,2;;;17,7;74;248;3,6;0,0
23/08/2026;12:44:00;1022,0;;;17,8;74;245;4,9;0,0
23/08/2026;12:49:00;1022,0;;;17,9;74;245;4,9;0,0
23/08/2026;12:54:00;1022,0;;;17,9;74;249;4,1;0,0
23/08/2026;12:59:00;1021,9;;;17,9;74;252;4,8;0,0
23/08/2026;13:04:00;1021,9;;;18,0;74;255;4,1;0,0
23/08/2026;13:09:00;1021,9;;;18,1;74;246;3,1;0,0
23/08/2026;13:14:00;1021,9;;;18,2;74;247;3,4;0,0
23/08/2026;13:19:00;1021,8;;;18,3;74;249;4,3;0,0
23/08/2026;13:24:00;1021,8;;;18,3;74;245;4,2;0,0
23/08/2026;13:29:00;1021,7;;;18,3;74;252;3,9;0,0
23/08/2026;13:34:00;1021,6;;;18,4;74;252;4,6;0,0
23/08/2026;13:39:00;1021,5;;;18,4;73;247;5,0;0,0
23/08/2026;13:44:00;1021,5;;;18,4;73;250;4,1;0,0
23/08/2026;13:49:00;1021,5;;;18,4;74;250;4,4;0,0
23/08/2026;13:54:00;1021,4;;;18,4;74;250;4,1;0,0
23/08/2026;13:59:00;1021,3;;;18,4;74;252;4,1;0,0
23/08/2026;14:04:00;1021,2;;;18,4;74;245;4,0;0,0
23/08/2026;14:09:00;1021,2;;;18,5;73;252;4,3;0,0
23/08/2026;14:14:00;1021,2;;;18,5;73;249;4,1;0,0
23/08/2026;14:19:00;1021,3;;;18,4;73;250;4,8;0,0
23/08/2026;14:24:00;1021,3;;;18,4;73;245;4,5;0,0
23/08/2026;14:29:00;1021,3;;;18,4;73;252;4,5;0,0
23/08/2026;14:34:00;1021,4;;;18,4;74;260;3,6;0,0
23/08/2026;14:39:00;1021,4;;;18,4;74;251;5,0;0,0
23/08/2026;14:44:00;1021,4;;;18,4;73;252;4,5;0,0
23/08/2026;14:49:00;1021,3;;;18,4;73;249;5,0;0,0
23/08/2026;14:54:00;1021,3;;;18,4;74;250;4,7;0,0
23/08/2026;14:59:00;1021,3;;;18,4;73;255;4,1;0,0
23/08/2026;15:04:00;1021,3;;;18,4;73;257;4,8;0,0
23/08/2026;15:09:00;1021,4;;;18,5;73;263;3,7;0,0
23/08/2026;15:14:00;1021,4;;;18,5;73;286;2,5;0,0
23/08/2026;15:24:00;1021,5;;;18,5;73;268;2,9;0,0
23/08/2026;15:29:00;1021,5;;;18,6;73;262;2,3;0,0
23/08/2026;15:34:00;1021,5;;;18,6;73;263;3,4;0,0
23/08/2026;15:39:00;1021,5;;;18,7;73;254;3,9;0,0
23/08/2026;15:44:00;1021,6;;;18,7;73;268;2,9;0,0
23/08/2026;15:49:00;1021,7;;;18,7;73;254;3,3;0,0
23/08/2026;15:54:00;1021,7;;;18,7;72;248;3,2;0,0
23/08/2026;15:59:00;1021,7;;;18,7;72;252;3,3;0,0
23/08/2026;16:04:00;1021,6;;;18,7;72;251;4,9;0,0
23/08/2026;16:09:00;1021,6;;;18,7;71;253;3,8;0,0
23/08/2026;16:14:00;1021,6;;;18,6;71;243;4,6;0,0
23/08/2026;16:19:00;1021,7;;;18,6;71;250;5,0;0,0
23/08/2026;16:24:00;1021,7;;;18,5;71;246;5,6;0,0
23/08/2026;16:29:00;1021,8;;;18,4;71;252;5,1;0,0
23/08/2026;16:34:00;1021,8;;;18,3;71;250;5,0;0,0
23/08/2026;16:39:00;1021,9;;;18,2;71;244;6,4;0,0
23/08/2026;16:44:00;1021,9;;;18,2;71;245;6,3;0,0
23/08/2026;16:49:00;1022,1;;;18,0;71;245;6,2;0,0
23/08/2026;16:54:00;1022,1;;;17,9;71;249;6,1;0,0
23/08/2026;16:59:00;1022,2;;;17,9;72;247;6,1;0,0
23/08/2026;17:04:00;1022,3;;;17,8;72;236;6,0;0,0
23/08/2026;17:09:00;1022,4;;;17,7;72;241;5,9;0,0
23/08/2026;17:14:00;1022,4;;;17,6;72;244;5,4;0,0
23/08/2026;17:19:00;1022,5;;;17,5;72;235;5,9;0,0
23/08/2026;17:24:00;1022,5;;;17,4;72;242;6,0;0,0
23/08/2026;17:29:00;1022,6;;;17,3;72;241;5,5;0,0
23/08/2026;17:34:00;1022,6;;;17,1;72;235;5,7;0,0
23/08/2026;17:39:00;1022,7;;;17,0;72;234;5,7;0,0
23/08/2026;17:44:00;1022,7;;;16,8;72;244;5,3;0,0
23/08/2026;17:49:00;1022,7;;;16,6;72;238;5,9;0,0
23/08/2026;17:54:00;1022,7;;;16,4;73;237;5,1;0,0
23/08/2026;17:59:00;1022,7;;;16,2;73;241;5,1;0,0
23/08/2026;18:04:00;1022,8;;;16,1;73;233;5,1;0,0
23/08/2026;18:09:00;1022,9;;;15,9;73;234;5,3;0,0
23/08/2026;18:14:00;1022,9;;;15,8;74;233;4,4;0,0
23/08/2026;18:19:00;1023,0;;;15,7;74;224;4,1;0,0
23/08/2026;18:24:00;1023,0;;;15,6;74;235;4,5;0,0
23/08/2026;18:29:00;1023,0;;;15,5;74;243;4,0;0,0
23/08/2026;18:34:00;1023,1;;;15,5;74;249;3,7;0,0
23/08/2026;18:39:00;1023,2;;;15,3;74;248;3,6;0,0
23/08/2026;18:44:00;1023,2;;;15,2;74;248;3,4;0,0
23/08/2026;18:49:00;1023,3;;;15,1;74;248;3,1;0,0
23/08/2026;18:54:00;1023,3;;;15,0;74;251;3,7;0,0
23/08/2026;18:59:00;1023,3;;;14,9;74;250;3,4;0,0
23/08/2026;19:04:00;1023,4;;;14,8;74;255;3,3;0,0
23/08/2026;19:09:00;1023,4;;;14,8;74;247;2,9;0,0
23/08/2026;19:14:00;1023,4;;;14,7;74;253;2,6;0,0
23/08/2026;19:19:00;1023,5;;;14,6;74;249;2,5;0,0
23/08/2026;19:24:00;1023,5;;;14,6;74;258;2,6;0,0
23/08/2026;19:29:00;1023,6;;;14,5;74;254;2,4;0,0
23/08/2026;19:34:00;1023,6;;;14,4;74;258;2,6;0,0
23/08/2026;19:39:00;1023,7;;;14,4;74;250;2,5;0,0
23/08/2026;19:44:00;1023,7;;;14,3;74;248;2,6;0,0
23/08/2026;19:49:00;1023,8;;;14,2;74;223;2,1;0,0
23/08/2026;19:54:00;1023,8;;;14,2;74;224;1,3;0,0
23/08/2026;19:59:00;1023,8;;;14,1;74;234;1,6;0,0
23/08/2026;20:04:00;1023,8;;;14,0;74;229;1,8;0,0
23/08/2026;20:09:00;1023,9;;;13,9;74;225;1,7;0,0
23/08/2026;20:14:00;1023,9;;;13,9;74;195;1,3;0,0
23/08/2026;20:19:00;1024,0;;;13,8;74;215;1,5;0,0
23/08/2026;20:24:00;1024,0;;;13,7;74;202;1,3;0,0
23/08/2026;20:29:00;1024,1;;;13,6;74;202;1,5;0,0
23/08/2026;20:34:00;1024,1;;;13,6;74;177;1,3;0,0
23/08/2026;20:39:00;1024,2;;;13,5;74;206;1,2;0,0
23/08/2026;20:44:00;1024,2;;;13,4;74;207;1,1;0,0
23/08/2026;20:49:00;1024,2;;;13,3;74;207;1,1;0,0
23/08/2026;20:54:00;1024,3;;;13,3;74;215;1,0;0,0
23/08/2026;20:59:00;1024,3;;;13,2;74;222;1,3;0,0
23/08/2026;21:04:00;1024,4;;;13,1;74;210;1,1;0,0
23/08/2026;21:09:00;1024,4;;;13,1;74;198;1,2;0,0
23/08/2026;21:14:00;1024,5;;;13,0;74;223;1,6;0,0
23/08/2026;21:19:00;1024,5;;;13,0;74;232;1,8;0,0
23/08/2026;21:24:00;1024,6;;;13,0;74;223;1,5;0,0
23/08/2026;21:29:00;1024,7;;;12,9;74;222;1,7;0,0
23/08/2026;21:34:00;1024,7;;;12,9;74;232;1,8;0,0
23/08/2026;21:39:00;1024,6;;;12,9;74;228;1,8;0,0
23/08/2026;21:44:00;1024,7;;;12,9;74;218;1,5;0,0
23/08/2026;21:49:00;1024,7;;;12,9;74;208;1,2;0,0
23/08/2026;21:54:00;1024,7;;;12,8;74;208;1,1;0,0
23/08/2026;21:59:00;1024,7;;;12,8;74;214;1,3;0,0
23/08/2026;22:04:00;1024,7;;;12,8;74;212;1,6;0,0
23/08/2026;22:09:00;1024,7;;;12,7;74;202;1,4;0,0
23/08/2026;22:14:00;1024,7;;;12,7;74;194;1,2;0,0
23/08/2026;22:19:00;1024,8;;;12,6;74;196;1,3;0,0
23/08/2026;22:24:00;1024,8;;;12,6;74;199;1,4;0,0
23/08/2026;22:29:00;1024,8;;;12,5;74;198;1,3;0,0
23/08/2026;22:34:00;1024,8;;;12,5;74;184;1,3;0,0
23/08/2026;22:39:00;1024,8;;;12,4;74;193;1,3;0,0
23/08/2026;22:44:00;1024,8;;;12,4;74;190;1,4;0,0
23/08/2026;22:49:00;1024,8;;;12,3;74;191;1,2;0,0
23/08/2026;22:54:00;1024,8;;;12,3;74;201;1,2;0,0
23/08/2026;22:59:00;1024,8;;;12,3;74;231;1,6;0,0
23/08/2026;23:04:00;1024,8;;;12,3;74;205;1,2;0,0
23/08/2026;23:09:00;1024,8;;;12,3;74;196;1,1;0,0
23/08/2026;23:14:00;1024,8;;;12,3;74;218;1,2;0,0
23/08/2026;23:19:00;1024,8;;;12,3;74;218;1,4;0,0
23/08/2026;23:24:00;1024,7;;;12,3;74;234;2,0;0,0
23/08/2026;23:29:00;1024,7;;;12,3;74;217;1,7;0,0
23/08/2026;23:34:00;1024,8;;;12,3;74;219;1,8;0,0
23/08/2026;23:39:00;1024,8;;;12,3;74;216;1,4;0,0
23/08/2026;23:44:00;1024,8;;;12,4;74;212;1,5;0,0
23/08/2026;23:49:00;1024,8;;;12,4;74;218;1,5;0,0
23/08/2026;23:54:00;1024,8;;;12,4;74;223;1,6;0,0
23/08/2026;23:59:00;1024,8;;;12,5;74;214;1,4;0,0
